Location: Moscow
(55.7500°N, 37.5830°E)
Time: 05:40:50
(UTC+03:00)

Vanguard 1 Rocket - Pass Details

Date: 02 December 2021
Orbit: 651 x 4225 km, 34.3° (Epoch: 26 January)

Event Time Altitude Azimuth Distance (km) Brightness Sun altitude
Exits shadow 06:47:50 - 253° (WSW) 5,756 11.0 -14.1°
Reaches altitude 10° 06:50:11 10° 247° (WSW) 5,416 10.9 -13.8°
Maximum altitude 07:05:24 36° 190° (S) 4,888 11.2 -11.8°
Drops below altitude 10° 07:26:37 10° 135° (SE) 7,426 13.4 -9.1°
Sets 07:33:12 0° 128° (SE) 8,381 14.4 -8.3°
